Weather in Puyal

Russia / Mari El Republic     56°39′28″N   48°05′51″E
temp.,
°C
wind,
m/s
gust,
m/s
humid.,
%
clouds,
%
prec.,
mm/h
press.,
hPa
HPBL,
m
25 february, thu
thu2500:00−24ssw229590 0.0 103420
03:00−24s339888 0.0 103361
06:00−22s4795100 0.0 1030231
09:00−20sse5992100 0.0 1027303
12:00−17sse61294100 0.3 1023442
15:00−15sse61294100 1.0 1021593
18:00−15sse51194100 0.9 1018640
21:00−15sse51094100 1.5 1017513
26 february, fri
fri2600:00−15sse4995100 0.4 1016414
03:00−16se4995100 0.6 1016362
06:00−16se389593 0.1 1014296
09:00−14sse489396 0.2 1013352
12:00−11se5892100 0.1 1011411
15:00−10se61092100 0.2 1008456
18:00−10se71494100 0.9 1003444
21:00−8se71494100 4.8 998498
27 february, sat
sat2700:00−7se51095100 4.1 994352
03:00−6ese2297100 7.1 99381
06:00−6nne2397100 1.6 992109
09:00−8ne4695100 2.1 993238
12:00−8nne5794100 0.3 995400
15:00−10nne5994100 1.1 997521
18:00−11n51093100 0.9 999616
21:00−13n51192100 1.0 1002467
28 february, sun
sun2800:00−15n5119498 0.0 1003319
03:00−18n4109592 0.1 1005270
06:00−20n4109666 0.0 1007270
09:00−18n599262 0.0 1009356
12:00−15n589073 0.0 1010474
15:00−13n598983 0.0 1012595
18:00−16n41094100 0.0 1014293
21:00−18n4109586 0.0 1017222
1 march, mon
mon100:00−20n37970 0.0 1018125
03:00−21n37970 0.0 1020127
06:00−23n33982 0.0 102273
09:00−19n35952 0.0 1023194
12:00−14nnw23863 0.0 1023327
15:00−12w238922 0.0 1022349
18:00−15sw239652 0.0 102138
21:00−12sw499677 0.0 1019234